Date String (YYYY-MM-DD hh:mm:ss) UTC,Instrument flags,absolute air pressure of the measurement (hPa),sample flow rate (lpm),inlet stack bypass flow (lpm),air temperature of the measurement (°C),ambient temperature measured by the external sensor (°C),aerosol sample conditioner tube jacket temperature (°C),OPC LED temperature (°C),internal box temperature (°C),relative humidity of the measurement (%),span deviation,mass concentration of particles derived from Lorenz-Mie calculation of OPC scattering (μg/m³),mass concentration of particles derived from Lorenz-Mie calculation of OPC scattering (μg/m³),mass concentration of particles derived from Lorenz-Mie calculation of OPC scattering (μg/m³)
DateTimeUTC,F1_M11,P_M11,Q1_M11,Q2_M11,T1_M11,T2_M11,T3_M11,T4_M11,T5_M11,U1_M11,ZSPAN_M11,X0_M11,X2_M11,X1_M11
2023-09-27 18:00:00,SystemResetWarning,0831.5,5.00,000.00,028.4,027.0,000.0,036.8,030.2,22.6,0000.0,0018.95,0007.02,0005.63
2023-09-27 18:01:00,SystemResetWarning,0831.5,5.00,000.00,028.4,027.1,000.0,036.8,030.3,22.7,0001.5,0018.67,0007.03,0005.68
2023-09-27 18:02:00,SystemResetWarning,0831.5,4.99,000.00,028.4,026.0,000.0,036.8,030.2,22.8,0000.0,0018.20,0007.11,0005.75
2023-09-27 18:03:00,SystemResetWarning,0831.4,5.00,000.00,028.3,024.6,000.0,036.7,030.0,23.2,0000.0,0017.52,0007.11,0005.81
2023-09-27 18:04:00,SystemResetWarning,0831.5,5.01,000.00,028.3,024.7,000.0,036.6,029.9,23.1,0000.0,0017.34,0007.12,0005.86
2023-09-27 18:05:00,SystemResetWarning,0831.4,4.99,000.00,028.2,025.0,000.0,036.6,029.8,23.0,0000.0,0017.29,0007.11,0005.91
2023-09-27 18:06:00,SystemResetWarning,0831.4,4.99,000.00,028.2,025.4,000.0,036.7,029.8,22.9,0000.0,0016.92,0007.17,0005.97
2023-09-27 18:07:00,SystemResetWarning,0831.4,5.00,000.00,028.2,025.8,000.0,036.7,029.9,23.0,0000.0,0015.19,0007.20,0006.00
2023-09-27 18:08:00,SystemResetWarning,0831.4,5.01,000.00,028.2,026.2,000.0,036.7,030.0,23.0,0000.0,0015.02,0007.24,0006.01
2023-09-27 18:09:00,SystemResetWarning,0831.4,5.00,000.00,028.2,026.5,000.0,036.7,030.0,22.8,0000.0,0015.28,0007.25,0005.99
2023-09-27 18:10:00,SystemResetWarning,0831.4,4.99,000.00,028.3,026.7,000.0,036.7,030.1,22.9,0000.0,0015.66,0007.30,0005.99
2023-09-27 18:11:00,SystemResetWarning,0831.4,4.99,000.00,028.3,027.0,000.0,036.7,030.2,22.7,0000.0,0016.38,0007.28,0005.98
2023-09-27 18:12:00,SystemResetWarning,0831.3,5.00,000.00,028.3,027.2,000.0,036.8,030.2,23.0,0000.0,0016.69,0007.34,0005.98
2023-09-27 18:13:00,SystemResetWarning,0831.3,5.00,000.00,028.4,027.1,000.0,036.8,030.3,23.0,0000.0,0017.31,0007.29,0005.94
2023-09-27 18:14:00,SystemResetWarning,0831.3,4.99,000.00,028.4,025.7,000.0,036.7,030.2,23.2,0000.0,0017.70,0007.31,0005.92
2023-09-27 18:15:00,SystemResetWarning,0831.3,5.01,000.00,028.3,024.7,000.0,036.7,030.0,22.9,0000.0,0018.38,0007.36,0005.92
2023-09-27 18:16:00,SystemResetWarning,0831.4,5.01,000.00,028.3,024.9,000.0,036.6,029.9,22.9,0000.0,0018.63,0007.39,0005.90
2023-09-27 18:17:00,SystemResetWarning,0831.3,5.00,000.00,028.2,025.2,000.0,036.7,029.8,22.9,0000.0,0019.28,0007.38,0005.88
2023-09-27 18:18:00,SystemResetWarning,0831.3,5.01,000.00,028.2,025.6,000.0,036.7,029.9,22.9,0000.0,0019.77,0007.40,0005.87
2023-09-27 18:19:00,SystemResetWarning,0831.3,5.00,000.00,028.2,026.0,000.0,036.7,029.9,22.6,0000.0,0019.82,0007.43,0005.88
2023-09-27 18:20:00,SystemResetWarning,0831.3,5.00,000.00,028.2,026.3,000.0,036.7,030.0,22.5,0003.1,0021.06,0007.52,0005.89
2023-09-27 18:21:00,SystemResetWarning,0831.3,5.00,000.00,028.3,026.6,000.0,036.7,030.1,22.2,0003.2,0022.05,0007.56,0005.90
2023-09-27 18:22:00,SystemResetWarning,0831.3,4.99,000.00,028.3,026.9,000.0,036.7,030.2,21.9,0002.2,0021.78,0007.61,0005.90
2023-09-27 18:23:00,SystemResetWarning,0831.3,5.00,000.00,028.3,027.1,000.0,036.8,030.2,21.8,0002.1,0022.49,0007.66,0005.90
2023-09-27 18:24:00,SystemResetWarning,0831.3,4.99,000.00,028.4,026.6,000.0,036.7,030.2,21.9,0002.3,0023.09,0007.68,0005.88
2023-09-27 18:25:00,SystemResetWarning,0831.3,5.00,000.00,028.3,025.2,000.0,036.7,030.0,21.9,0002.0,0024.20,0007.69,0005.86
2023-09-27 18:26:00,SystemResetWarning,0831.3,5.01,000.00,028.3,024.6,000.0,036.6,029.9,22.1,0001.7,0024.91,0007.76,0005.85
2023-09-27 18:27:00,SystemResetWarning,0831.2,5.02,000.00,028.2,024.9,000.0,036.6,029.8,22.1,0001.6,0025.11,0007.78,0005.82
2023-09-27 18:28:00,SystemResetWarning,0831.3,5.00,000.00,028.2,025.3,000.0,036.6,029.8,22.1,0001.5,0025.72,0007.83,0005.83
2023-09-27 18:29:00,SystemResetWarning,0831.2,5.00,000.00,028.2,025.7,000.0,036.6,029.8,22.0,0001.4,0025.76,0007.87,0005.84
2023-09-27 18:30:00,SystemResetWarning,0831.2,5.00,000.00,028.2,026.1,000.0,036.6,029.9,21.9,0001.5,0026.02,0007.91,0005.84
2023-09-27 18:31:00,SystemResetWarning,0831.3,5.00,000.00,028.2,026.4,000.0,036.6,030.0,22.1,0001.5,0026.69,0007.93,0005.84
2023-09-27 18:32:00,SystemResetWarning,0831.3,5.00,000.00,028.2,026.7,000.0,036.7,030.1,22.3,0002.1,0026.18,0007.95,0005.84
2023-09-27 18:33:00,SystemResetWarning,0831.2,5.00,000.00,028.3,027.0,000.0,036.7,030.1,21.8,0002.6,0026.29,0007.94,0005.87
2023-09-27 18:34:00,SystemResetWarning,0831.2,5.00,000.00,028.3,027.1,000.0,036.7,030.2,21.4,0003.6,0027.08,0007.89,0005.87
2023-09-27 18:35:00,SystemResetWarning,0831.2,4.98,000.00,028.3,026.1,000.0,036.7,030.2,21.4,0003.6,0027.48,0007.93,0005.89
2023-09-27 18:36:00,SystemResetWarning,0831.2,5.00,000.00,028.3,024.7,000.0,036.6,030.0,21.4,0003.6,0027.50,0008.03,0005.91
2023-09-27 18:37:00,SystemResetWarning,0831.2,5.01,000.00,028.2,024.7,000.0,036.6,029.9,21.6,0003.4,0027.21,0007.98,0005.93
2023-09-27 18:38:00,SystemResetWarning,0831.1,5.00,000.00,028.2,025.0,000.0,036.6,029.8,21.5,0003.6,0026.86,0007.97,0005.96
2023-09-27 18:39:00,SystemResetWarning,0831.1,5.00,000.00,028.1,025.4,000.0,036.6,029.8,21.6,0003.5,0027.23,0008.02,0005.96
2023-09-27 18:40:00,SystemResetWarning,0831.1,5.01,000.00,028.1,025.8,000.0,036.6,029.8,21.4,0003.7,0026.80,0008.03,0005.95
2023-09-27 18:41:00,SystemResetWarning,0831.1,4.99,000.00,028.2,026.1,000.0,036.6,029.9,21.5,0003.4,0027.23,0008.01,0005.94
2023-09-27 18:42:00,SystemResetWarning,0831.1,5.00,000.00,028.2,026.5,000.0,036.6,030.0,21.5,0003.1,0026.42,0007.99,0005.95
2023-09-27 18:43:00,SystemResetWarning,0831.1,5.00,000.00,028.2,026.8,000.0,036.7,030.1,21.8,0002.8,0026.44,0008.01,0005.96
2023-09-27 18:44:00,SystemResetWarning,0831.1,5.00,000.00,028.3,027.0,000.0,036.7,030.1,22.1,0002.9,0027.65,0008.03,0005.97
2023-09-27 18:45:00,SystemResetWarning,0831.2,4.99,000.00,028.3,027.0,000.0,036.7,030.2,22.4,0002.6,0026.47,0008.07,0005.99
2023-09-27 18:46:00,SystemResetWarning,0831.1,4.98,000.00,028.3,025.6,000.0,036.6,030.1,22.4,0002.3,0025.13,0008.11,0006.00
2023-09-27 18:47:00,SystemResetWarning,0831.1,5.01,000.00,028.2,024.6,000.0,036.6,029.9,22.4,0002.3,0023.63,0008.10,0006.00
2023-09-27 18:48:00,SystemResetWarning,0831.1,5.01,000.00,028.2,024.8,000.0,036.5,029.8,22.3,0002.8,0022.80,0008.03,0005.98
2023-09-27 18:49:00,SystemResetWarning,0831.0,4.99,000.00,028.1,025.1,000.0,036.6,029.7,22.9,0002.9,0023.40,0008.07,0005.98
2023-09-27 18:50:00,SystemResetWarning,0831.0,4.99,000.00,028.1,025.5,000.0,036.6,029.8,22.1,0003.0,0025.60,0008.13,0006.01
2023-09-27 18:51:00,SystemResetWarning,0831.0,5.01,000.00,028.1,025.9,000.0,036.6,029.8,22.1,0003.0,0025.55,0008.15,0006.02
2023-09-27 18:52:00,SystemResetWarning,0831.0,5.01,000.00,028.1,026.3,000.0,036.6,029.9,21.7,0003.1,0024.98,0008.13,0006.03
2023-09-27 18:53:00,SystemResetWarning,0831.0,4.99,000.00,028.2,026.6,000.0,036.6,030.0,21.6,0003.5,0024.42,0008.11,0006.05
2023-09-27 18:54:00,SystemResetWarning,0830.9,5.00,000.00,028.2,026.9,000.0,036.6,030.1,21.6,0003.4,0023.63,0008.08,0006.08
2023-09-27 18:55:00,SystemResetWarning,0830.9,5.00,000.00,028.3,027.1,000.0,036.7,030.2,21.7,0003.2,0023.00,0008.09,0006.09
2023-09-27 18:56:00,SystemResetWarning,0830.9,4.99,000.00,028.3,026.7,000.0,036.7,030.2,21.9,0003.3,0023.07,0008.11,0006.11
2023-09-27 18:57:00,SystemResetWarning,0830.9,4.99,000.00,028.2,025.1,000.0,036.6,030.0,21.6,0003.2,0024.64,0008.10,0006.12
2023-09-27 18:58:00,SystemResetWarning,0830.9,5.01,000.00,028.2,024.6,000.0,036.5,029.8,22.0,0003.4,0025.65,0008.07,0006.14
2023-09-27 18:59:00,SystemResetWarning,0830.9,5.01,000.00,028.1,024.9,000.0,036.5,029.8,21.8,0003.5,0028.32,0008.18,0006.18
